Home   Weather   Overland Park   Past weeks

Flag for USA Past Weather in Overland Park, Kansas, USA — Yesterday and Last 2 Weeks

Now
52 °F

Clear.


Feels Like: 47 °F
Forecast: 29 / 55 °F
Wind: 16 mph from Northeast

Location: Johnson County Executive Airport

Current Time: Feb 23, 2017 at 7:53:36 pm

Latest Report: Feb 23, 2017 at 6:53 pm


Visibility: 10 mi

Pressure: 29.39 "Hg

Humidity: 80%

Dew Point: 46 °F

Location of Overland ParkLocation

Past Weather in Overland Park — Graph

°F

Overland Park Temperature Yesterday

Maximum temperature yesterday: 79 °F (at 3:53 pm)
Minimum temperature yesterday: 43 °F (at 6:53 am)
Average temperature yesterday: 59 °F

High & Low Weather Summary for the Past Weeks

 TemperatureHumidityPressure
High79 °F (Feb 22, 3:53 pm)100% (Feb 11, 4:53 am)30.48 "Hg (Feb 11, 4:53 am)
Low16 °F (Feb 9, 2:53 am)21% (Feb 16, 2:53 pm)29.39 "Hg (Feb 23, 4:53 pm)
Average49 °F62%29.94 "Hg
* Reported Feb 8 5:53 pm — Feb 23 5:53 pm, Overland Park, Weather by CustomWeather, © 2017

Note: Actual official high and low records may vary slightly from our data, if they occured in-between our weather recording intervals... More about our weather records

Advertising

Overland Park Weather History for the Previous 24 Hours

Scroll right to see more
 ConditionsComfort  
Time TempWeatherWind HumidityBarometerVisibility
5:53 pm
Thu, Feb 23
56 °FSunny.14 mph75%29.39 "Hg10 mi
4:53 pm57 °FSunny.12 mph74%29.39 "Hg10 mi
3:53 pm57 °FSunny.12 mph72%29.40 "Hg10 mi
2:53 pm56 °FSunny.10 mph72%29.43 "Hg10 mi
1:53 pm55 °FSunny.10 mph72%29.46 "Hg10 mi
12:53 pm53 °FSunny.14 mph74%29.49 "Hg10 mi
12:02 pm52 °FScattered clouds.17 mph75%29.53 "Hg10 mi
11:53 am51 °FPartly sunny.16 mph74%29.54 "Hg10 mi
11:06 am51 °FMostly cloudy.15 mph74%29.62 "Hg10 mi
9:53 am50 °FPartly sunny.18 mph74%29.62 "Hg10 mi
8:53 am50 °FPartly sunny.15 mph71%29.67 "Hg10 mi
7:53 am50 °FScattered clouds.14 mph71%29.64 "Hg10 mi
6:53 am50 °FLight rain. Overcast.15 mph74%29.66 "Hg10 mi
5:53 am51 °FPassing clouds.15 mph71%29.69 "Hg10 mi
4:53 am52 °FPassing clouds.9 mph66%29.67 "Hg10 mi
3:53 am53 °FClear.15 mph61%29.63 "Hg10 mi
2:53 am54 °FClear.13 mph59%29.67 "Hg10 mi
1:53 am56 °FClear.12 mph53%29.68 "Hg10 mi
12:53 am56 °FClear.9 mph53%29.70 "Hg10 mi
11:53 pm
Wed, Feb 22
57 °FClear.7 mph49%29.69 "Hg10 mi
10:53 pm56 °FClear.3 mph47%29.69 "Hg10 mi
9:53 pm56 °FClear.No wind49%29.69 "Hg10 mi
8:53 pm54 °FClear.3 mph55%29.67 "Hg10 mi
7:53 pm61 °FClear.No wind39%29.66 "Hg10 mi
Weather by CustomWeather, © 2017

See weather overviewHow to use our weather pages